This demonstration page uses our WeatherBlox Daily Observations layout. Learn more.

Hourly Observations for February 19, 2019

Temp ( °F °C ) Dew Point ( °F °C ) Humidity (%) Winds ( mph kmh ) Pressure ( in mb ) Visibility ( mi km ) Precip ( " mm )
12:54 am 00:54 Mostly Clear 8 -13.3 4 -15.6 83 83 NNW 6 9 30.61 1037 10 16.0934 0 0
1:54 am 01:54 Partly Cloudy 3 -16.1 -1 -18.3 83 83 N 6 9 30.62 1037 10 16.0934 0 0
2:54 am 02:54 Mostly Cloudy 5 -15 2 -16.7 87 87 N 7 11 30.61 1037 10 16.0934 0 0
3:54 am 03:54 Mostly Cloudy 5 -15 1 -17.2 83 83 N 6 9 30.59 1036 10 16.0934 0 0
4:54 am 04:54 Cloudy 7 -13.9 3 -16.1 84 84 N 5 7 30.59 1036 10 16.0934 0 0
5:54 am 05:54 Cloudy 10 -12.2 6 -14.4 84 84 ENE 5 7 30.58 1036 8 12.87472 0 0
6:54 am 06:54 Cloudy 10 -12.2 6 -14.4 84 84 ENE 5 7 30.58 1035 8 12.87472 0 0
7:54 am 07:54 Cloudy 11 -11.7 6 -14.4 81 81 ENE 6 9 30.57 1035 7 11.26538 0 0
8:54 am 08:54 Cloudy 12 -11.1 6 -14.4 77 77 ENE 5 7 30.56 1035 8 12.87472 0 0
9:54 am 09:54 Mostly Sunny 15 -9.4 7 -13.9 70 70 NE 6 9 30.53 1034 9 14.48406 0 0
10:54 am 10:54 Mostly Cloudy 18 -7.8 9 -12.8 68 68 E 6 9 30.5 1033 10 16.0934 0 0
11:54 am 11:54 Mostly Sunny 22 -5.6 13 -10.6 68 68 E 12 19 30.46 1031 10 16.0934 0 0
12:54 pm 12:54 Cloudy 23 -5 15 -9.4 72 72 E 9 15 30.41 1030 10 16.0934 0 0
1:54 pm 13:54 Cloudy 22 -5.6 15 -9.4 75 75 E 12 19 30.37 1028 10 16.0934 0 0
2:54 pm 14:54 Cloudy 22 -5.6 15 -9.4 75 75 ENE 14 22 30.32 1027 9 14.48406 0 0
3:54 pm 15:54 Cloudy with Light Snow 21 -6.1 15 -9.4 78 78 E 14 22 30.32 1027 5 8.0467 0 0.0254
4:03 pm 16:03 Cloudy with Light Snow 21 -6.1 15 -9.4 78 78 undefined N/A 30.34 1027 2 3.21868 0 0.0254
4:27 pm 16:27 Cloudy with Light Snow 21 -6.1 16 -8.9 81 81 E 10 17 30.35 1028 1.75 2.816345 0 0.0254
4:33 pm 16:33 Cloudy with Light Snow 22 -5.6 16 -8.9 78 78 E 12 19 30.35 1028 3 4.82802 0 0.0254
4:41 pm 16:41 Cloudy with Light Snow 22 -5.6 16 -8.9 78 78 E 10 17 30.33 1027 2.5 4.02335 0 0.0254
4:46 pm 16:46 Cloudy with Light Snow 21 -6.1 16 -8.9 81 81 undefined N/A 30.32 1027 0.75 1.207005 0 0.0254
4:54 pm 16:54 Mostly Cloudy with Snow 21 -6.1 17 -8.3 85 85 ENE 12 19 30.29 1026 0.5 0.80467 0 0.0254
5:09 pm 17:09 Cloudy with Light Snow 21 -6.1 17 -8.3 85 85 E 8 13 30.32 1027 1.5 2.41401 0.01 0.254
5:19 pm 17:19 Cloudy with Light Snow 21 -6.1 18 -7.8 88 88 ENE 10 17 30.31 1026 0.75 1.207005 0.01 0.254
5:34 pm 17:34 Cloudy with Light Snow 21 -6.1 17 -8.3 85 85 ENE 10 17 30.28 1025 1 1.60934 0.02 0.508
5:39 pm 17:39 Cloudy with Light Snow 21 -6.1 17 -8.3 85 85 ENE 12 19 30.27 1025 2 3.21868 0.02 0.508
5:47 pm 17:47 Cloudy with Mist and Fog 21 -6.1 17 -8.3 85 85 NE 13 20 30.26 1025 5 8.0467 0.02 0.508
5:54 pm 17:54 Cloudy with Mist and Fog 21 -6.1 17 -8.3 85 85 NE 9 15 30.24 1024 6 9.65604 0.02 0.508
6:14 pm 18:14 Cloudy with Mist and Fog 21 -6.1 17 -8.3 85 85 E 9 15 30.28 1025 6 9.65604 0 0
6:35 pm 18:35 Cloudy with Light Snow 21 -6.1 18 -7.8 88 88 NE 14 22 30.23 1024 2 3.21868 0 0.0254
6:42 pm 18:42 Cloudy with Light Snow 21 -6.1 18 -7.8 88 88 NE 14 22 30.22 1023 1.5 2.41401 0 0.0254
6:49 pm 18:49 Cloudy with Light Snow 21 -6 18 -8 86 86 NE 15 24 30.22 1023 1.25 2.011675 0 0.0254
6:54 pm 18:54 Cloudy with Light Snow 21 -6.1 18 -7.8 88 88 NE 14 22 30.2 1023 1.25 2.011675 0 0.0254
7:15 pm 19:15 Cloudy with Light Snow 21 -6.1 18 -7.8 88 88 ENE 10 17 30.23 1024 2.5 4.02335 0.01 0.254
7:23 pm 19:23 Cloudy with Light Snow 21 -6.1 18 -7.8 88 88 ENE 12 19 30.23 1024 4 6.43736 0.01 0.254
7:28 pm 19:28 Cloudy with Light Snow 21 -6.1 18 -7.8 88 88 ENE 14 22 30.22 1023 3 4.82802 0.01 0.254
7:30 pm 19:30 Cloudy with Light Snow 21 -6.1 18 -7.8 88 88 ENE 14 22 30.21 1023 1.75 2.816345 0.01 0.254
7:36 pm 19:36 Cloudy with Light Snow 21 -6.1 18 -7.8 88 88 ENE 13 20 30.21 1023 0.75 1.207005 0.01 0.254
7:46 pm 19:46 Cloudy with Light Snow 21 -6.1 18 -7.8 88 88 ENE 12 19 30.2 1023 1 1.60934 0.01 0.254
7:54 pm 19:54 Mostly Cloudy with Snow 21 -6.1 18 -7.8 88 88 ENE 12 19 30.16 1021 0.75 1.207005 0.02 0.508
8:03 pm 20:03 Cloudy with Light Snow 21 -6.1 18 -7.8 88 88 E 9 15 30.19 1022 1.25 2.011675 0.01 0.254
8:06 pm 20:06 Cloudy with Light Snow 21 -6.1 18 -7.8 88 88 E 9 15 30.19 1022 2 3.21868 0.01 0.254
8:15 pm 20:15 Cloudy with Light Snow 21 -6.1 18 -7.8 88 88 E 9 15 30.19 1022 4 6.43736 0.01 0.254
8:22 pm 20:22 Cloudy with Light Snow 21 -6.1 18 -7.8 88 88 E 12 19 30.17 1022 2 3.21868 0.01 0.254
8:27 pm 20:27 Cloudy with Light Snow 21 -6.1 19 -7.2 92 92 E 10 17 30.17 1022 0.75 1.207005 0.01 0.254
8:54 pm 20:54 Cloudy with Light Snow 21 -6.1 19 -7.2 92 92 ENE 8 13 30.12 1020 1.75 2.816345 0.02 0.508
9:35 pm 21:35 Mostly Cloudy with Scattered Snow Showers 22 -5.6 19 -7.2 89 89 E 13 20 30.11 1020 1 1.60934 0.02 0.508
9:42 pm 21:42 Mostly Cloudy with Scattered Snow Showers 22 -5.6 19 -7.2 89 89 E 8 13 30.12 1020 1 1.60934 0.02 0.508
9:54 pm 21:54 Mostly Cloudy with Scattered Snow Showers 22 -5.6 19 -7.2 89 89 E 9 15 30.08 1019 1 1.60934 0.03 0.762
10:01 pm 22:01 Mostly Cloudy with Snow 22 -5.6 19 -7.2 89 89 E 12 19 30.11 1020 0.5 0.80467 0 0.0254
10:08 pm 22:08 Mostly Cloudy with Snow 22 -5.6 19 -7.2 89 89 E 12 19 30.1 1019 0.5 0.80467 0.01 0.254
10:54 pm 22:54 Mostly Cloudy with Snow 22 -5.6 20 -6.7 92 92 ENE 9 15 30.01 1016 0.5 0.80467 0.08 2.032
11:20 pm 23:20 Mostly Cloudy with Scattered Snow Showers 22 -5.6 20 -6.7 92 92 NE 7 11 30.03 1017 1 1.60934 0.04 1.016
11:39 pm 23:39 Mostly Cloudy with Scattered Snow Showers 22 -5.6 20 -6.7 92 92 Calm 30.04 1017 1 1.60934 0.04 1.016
11:54 pm 23:54 Cloudy with Light Snow 22 -5.6 19 -7.2 89 89 Calm 30 1016 1.25 2.011675 0.05 1.27

Powered by AerisWeather